"Time","Temp","Dewpoint","Humidity","Pressure","Direction","Speed","Gust","Precip","PrecipRate"
"00:04:57","45.7","44.4","95","29.83","359","4.2","13","0.00","0.01"
"00:09:59","45.6","44.3","95","29.83","358","4.4","12.7","0.00","0.01"
"00:14:56","45.6","44.3","95","29.83","351","4.3","12","0.00","0.00"
"00:19:57","45.4","44.1","95","29.83","350","6.1","14","0.00","0.00"
"00:24:58","45.2","43.9","95","29.83","345","5.8","14","0.00","0.00"
"00:29:59","45.1","43.8","95","29.83","347","6","14","0.00","0.00"
"00:34:56","45.1","43.8","95","29.83","348","4.9","16","0.00","0.00"
"00:39:59","45","43.7","95","29.83","345","3.8","12.7","0.00","0.00"
"00:44:56","44.9","43.6","95","29.83","27","3.5","12","0.00","0.00"
"00:49:57","44.9","43.6","95","29.83","355","3.2","9.2","0.00","0.00"
"00:54:59","44.8","43.5","95","29.83","339","4.7","12","0.00","0.00"
"00:59:56","44.7","43.1","94","29.84","323","4.7","17","0.00","0.00"
"01:04:56","44.5","42.9","94","29.84","345","5.2","17.3","0.00","0.00"
"01:09:56","44.5","42.7","93.6","29.84","359","5.6","15","0.00","0.00"
"01:14:58","44.3","42.4","93","29.84","339","5.2","14","0.00","0.00"
"01:19:57","44.3","42.4","93","29.84","339","5.7","15","0.00","0.00"
"01:24:58","44.2","42.2","92.7","29.84","354","4.2","13","0.00","0.00"
"01:29:56","44.2","42","92","29.86","13","4.8","11.5","0.00","0.00"
"01:34:57","44.2","42","92","29.86","354","4","11","0.00","0.00"
"01:39:56","44.1","41.7","91.1","29.86","0","4.9","15","0.00","0.00"
"01:44:57","44.1","41.6","90.8","29.87","10","6.2","18.4","0.00","0.00"
"01:49:57","44","41.3","90","29.87","1","6.4","18","0.00","0.00"
"01:54:59","44","41.1","89.3","29.87","340","7.1","18.4","0.00","0.00"
"01:59:56","43.9","40.9","89","29.87","345","5.3","21","0.00","0.00"
"02:04:59","43.8","40.8","88.8","29.87","344","5.8","20.7","0.00","0.00"
"02:09:57","43.7","40.6","88.7","29.87","358","5.8","18.4","0.00","0.00"
"02:14:56","43.6","40.4","88.2","29.87","13","4.3","15","0.00","0.00"
"02:19:58","43.5","40.2","88","29.87","8","5.4","15","0.00","0.00"
"02:24:55","43.5","40.1","87.6","29.87","357","6.3","18.4","0.00","0.00"
"02:29:57","43.4","39.8","87","29.88","165","6.4","18.4","0.00","0.00"
"02:34:57","43.4","39.8","87","29.88","54","5.4","19","0.00","0.00"
"02:39:59","43.3","39.6","86.8","29.88","358","3.7","11","0.00","0.00"
"02:44:56","43.2","39.3","86","29.89","356","5.5","13","0.00","0.00"
"02:49:57","43.1","39.2","85.9","29.89","344","5.5","15","0.00","0.00"
"02:54:58","43","38.8","85","29.89","7","6.3","18","0.00","0.00"
"02:59:59","43","38.8","85.2","29.89","43","4.4","13","0.00","0.00"
"03:04:56","42.9","38.9","85.5","29.89","25","5.2","15","0.00","0.00"
"03:09:57","42.8","38.5","84.7","29.89","339","5.7","17.3","0.00","0.00"
"03:14:56","42.7","38.2","84","29.90","297","5.2","16.1","0.00","0.00"
"03:19:58","42.5","37.9","83.6","29.90","30","6.8","26","0.00","0.00"
"03:24:59","42.4","37.6","83","29.90","358","4.5","18","0.00","0.00"
"03:29:57","42.2","37.4","83.1","29.91","8","4.3","18.4","0.00","0.00"
"03:34:59","42.1","37.4","83.4","29.91","329","5.3","16.1","0.00","0.00"
"03:39:59","42","37.2","83","29.91","0","4.9","16.1","0.00","0.00"
"03:44:58","41.9","36.9","82.1","29.91","324","5.4","20","0.00","0.00"
"03:49:56","41.8","36.7","82","29.91","337","6","17","0.00","0.00"
"03:54:57","41.8","36.7","82","29.91","350","4.3","14","0.00","0.00"
"03:59:58","41.7","36.6","82.1","29.91","357","4.5","11.5","0.00","0.00"
"04:04:59","41.6","36.5","82","29.91","2","6","13","0.00","0.00"
"04:09:56","41.6","36.5","82","29.91","15","5.6","15","0.00","0.00"
"04:14:56","41.5","36.2","81.3","29.91","330","6","13","0.00","0.00"
"04:19:59","41.3","36.1","81.5","29.91","11","6","19.6","0.00","0.00"
"04:24:57","41.3","35.8","80.9","29.91","353","5.1","19.6","0.00","0.00"
"04:29:51","41.1","35.5","80.2","29.92","356","6.3","13","0.00","0.00"
"04:34:57","41","35.3","80","29.92","335","5.1","16.1","0.00","0.00"
"04:39:59","40.9","35.2","79.9","29.92","281","7","21","0.00","0.00"
"04:44:56","40.8","35","79.7","29.94","3","4.9","12.7","0.00","0.00"
"04:49:58","40.7","34.9","79.7","29.94","23","5.5","15","0.00","0.00"
"04:54:59","40.6","34.7","79.2","29.94","347","4.8","15","0.00","0.00"
"04:59:57","40.5","34.5","79","29.95","340","3.6","14","0.00","0.00"
"05:04:58","40.4","34.2","78.3","29.95","355","4.3","16.1","0.00","0.00"
"05:09:56","40.3","33.7","77","29.95","11","5.6","13","0.00","0.00"
"05:14:59","40.1","33.5","77","29.96","343","4.7","16","0.00","0.00"
"05:19:57","40","33.2","76.5","29.96","0","8.1","21","0.00","0.00"
"05:24:59","39.8","32.5","75","29.96","19","7.2","16.1","0.00","0.00"
"05:29:57","39.7","32.2","74.2","29.97","350","5.6","14","0.00","0.00"
"05:34:56","39.6","31.9","73.6","29.97","197","5.8","16","0.00","0.00"
"05:39:59","39.5","31.6","73.3","29.97","211","6.1","21","0.00","0.00"
"05:44:56","39.3","31.5","73.2","29.98","333","3.7","11","0.00","0.00"
"05:49:59","39.2","31.3","73","29.98","61","3.5","15","0.00","0.00"
"05:54:56","39.2","30.9","72.1","29.98","336","5.2","15","0.00","0.00"
"05:59:58","39.1","30.7","71.9","29.99","351","6.9","21","0.00","0.00"
"06:04:59","38.9","30.6","71.8","29.99","5","5.9","22","0.00","0.00"
"06:09:58","38.9","30.4","71.4","29.99","347","5.4","14","0.00","0.00"
"06:14:58","38.8","30.3","71.4","30.00","346","5.8","17.3","0.00","0.00"
"06:19:57","38.8","30.3","71.3","30.00","325","5.4","17.3","0.00","0.00"
"06:24:59","38.6","29.9","70.7","30.00","342","5.3","16","0.00","0.00"
"06:29:58","38.5","29.4","69.7","30.01","355","4.7","19","0.00","0.00"
"06:34:57","38.3","29","69","30.01","315","6.1","14","0.00","0.00"
"06:39:58","38.2","28.8","68.7","30.01","345","6.8","14","0.00","0.00"
"06:44:56","38.1","28.5","68","30.03","5","4.8","19","0.00","0.00"
"06:49:59","38","28.4","68","30.03","50","5.9","19.6","0.00","0.00"
"06:54:58","37.8","27.8","67","30.03","11","5.6","20","0.00","0.00"
"06:59:58","37.7","27.5","66.6","30.04","7","5","16","0.00","0.00"
"07:04:58","37.5","27","65.7","30.04","1","5.2","17.3","0.00","0.00"
"07:09:56","37.2","26.3","64.3","30.04","354","6.3","26.5","0.00","0.00"
"07:14:57","37","26","64.1","30.05","3","3.9","14","0.00","0.00"
"07:19:57","36.8","26","64.6","30.05","358","6.3","19.6","0.00","0.00"
"07:24:57","36.6","25.6","63.9","30.05","352","6.7","16","0.00","0.00"
"07:29:57","36.5","24.8","62.4","30.07","328","6.1","18","0.00","0.00"
"07:34:56","36.4","24.2","61","30.07","21","6.4","22","0.00","0.00"
"07:39:57","36.3","24","60.6","30.07","352","6.6","24.2","0.00","0.00"
"07:44:57","36.2","23.9","60.8","30.08","14","5.4","16","0.00","0.00"
"07:49:59","36.2","23.9","60.8","30.08","354","5.7","12.7","0.00","0.00"
"07:54:58","36.1","23","58.9","30.08","343","6.3","19.6","0.00","0.00"
"07:59:56","36","23.1","59.1","30.10","2","4.2","14","0.00","0.00"
"08:04:57","36","22.4","57.4","30.10","350","6.1","15","0.00","0.00"
"08:09:59","36","22.2","56.8","30.10","12","4.9","13","0.00","0.00"
"08:14:58","36","21.8","55.9","30.11","25","4.5","14","0.00","0.00"
"08:19:57","36","21.4","55","30.11","100","6","16.1","0.00","0.00"
"08:24:58","36","21","54.3","30.11","323","5.6","23","0.00","0.00"
"08:29:56","36.1","20.9","53.9","30.13","351","6","16.1","0.00","0.00"
"08:34:59","36.1","21.7","55.6","30.13","338","3.3","11","0.00","0.00"
"08:39:59","36.1","20.6","53","30.13","84","6.1","18.4","0.00","0.00"
"08:44:58","36.1","20.4","52.5","30.14","53","5.3","22","0.00","0.00"
"08:49:56","36","19.3","50.2","30.14","20","6.2","19","0.00","0.00"
"08:54:59","36","19","49.8","30.14","20","5.4","16","0.00","0.00"
"08:59:57","36","18.5","48.5","30.16","350","5.8","22","0.00","0.00"
"09:04:58","36","18.6","48.7","30.16","344","6","20","0.00","0.00"
"09:09:56","36.2","18.6","48.3","30.16","350","5","15","0.00","0.00"
"09:14:56","36.7","18.4","47","30.17","342","6.8","20","0.00","0.00"
"09:19:58","37.3","18.9","47","30.17","27","3.6","17","0.00","0.00"
"09:24:56","38","19.3","46.5","30.17","54","4.5","14","0.00","0.00"
"09:29:58","38.4","19","45.1","30.18","27","6.7","17.3","0.00","0.00"
"09:34:57","38.4","18.9","45","30.18","15","4.2","17.3","0.00","0.00"
"09:39:57","38.6","18","43","30.18","357","4.6","18","0.00","0.00"
"09:44:59","38.8","18","42.7","30.18","354","5.9","15","0.00","0.00"
"09:49:57","39.4","18.8","43.2","30.18","341","5.1","15","0.00","0.00"
"09:54:59","39.8","18.5","41.9","30.18","328","4.9","15","0.00","0.00"
"09:59:58","40.3","18.9","41.8","30.20","345","6.4","20","0.00","0.00"
"10:04:58","40","17.2","39.2","30.20","1","7.3","17.3","0.00","0.00"
"10:09:56","39.6","16.4","38.7","30.20","15","7.9","17.3","0.00","0.00"
"10:14:56","39.5","17.3","40.2","30.21","338","4.7","15","0.00","0.00"
"10:19:59","40.3","18.3","40.9","30.21","354","5.8","20","0.00","0.00"
"10:24:58","40.7","17.8","39.3","30.21","343","9.2","31.1","0.00","0.00"
"10:29:56","40.8","17.7","39.1","30.22","0","5.6","14","0.00","0.00"
"10:34:58","40.9","17.1","37.8","30.22","345","7.2","25.3","0.00","0.00"
"10:39:58","40.5","16.2","36.9","30.22","349","10.3","25.3","0.00","0.00"
"10:44:56","40.4","16.9","38.1","30.24","2","6.9","23","0.00","0.00"
"10:49:58","40.6","17.5","39","30.24","13","5.4","22","0.00","0.00"
"10:54:59","40.5","16.3","37.2","30.24","39","5.1","17","0.00","0.00"
"10:59:57","40.1","15.4","36.2","30.25","34","6.3","16.1","0.00","0.00"
"11:04:58","40.2","16.3","37.5","30.25","355","4.9","12","0.00","0.00"
"11:09:59","40.7","16.4","37","30.25","12","6.9","16.1","0.00","0.00"
"11:14:58","41.1","16","35.8","30.26","39","6.7","17.3","0.00","0.00"
"11:19:59","41.3","15.7","35.1","30.26","30","6.5","17.3","0.00","0.00"
"11:24:57","41.5","16.8","36.6","30.26","53","4.6","17.3","0.00","0.00"
"11:29:59","42.1","17.6","36.8","30.26","359","4.8","14","0.00","0.00"
"11:34:57","42.6","17.6","36.2","30.26","24","4.6","16.1","0.00","0.00"
"11:39:57","42.6","16.6","34.7","30.26","38","5.6","15","0.00","0.00"
"11:44:59","42.3","15.8","33.9","30.27","31","6.4","18","0.00","0.00"
"11:49:56","42.7","16.7","34.6","30.27","9","5.4","18.4","0.00","0.00"
"11:54:59","42.8","16.2","33.7","30.27","11","5.3","14","0.00","0.00"
"11:59:56","43","17.9","36.1","30.27","75","4","18.4","0.00","0.00"
"12:04:57","43.2","17.2","34.9","30.27","9","5.7","18.4","0.00","0.00"
"12:09:58","43.4","16.9","34.1","30.27","42","5.2","15","0.00","0.00"
"12:14:57","43.6","18.2","35.7","30.28","19","4.1","13","0.00","0.00"
"12:19:59","44.1","18.5","35.6","30.28","21","4.2","16","0.00","0.00"
"12:24:57","44.5","19.6","36.6","30.28","3","4.1","16.1","0.00","0.00"
"12:29:56","45.1","20.5","37.3","30.28","28","3.5","10","0.00","0.00"
"12:34:58","45.4","19.9","36","30.28","31","4.8","19","0.00","0.00"
"12:39:57","45.5","18.5","33.7","30.28","0","8.3","19.6","0.00","0.00"
"12:44:56","45.2","16.8","31.7","30.29","145","5.9","16.1","0.00","0.00"
"12:49:58","44.6","16","31.4","30.29","7","6.2","17.3","0.00","0.00"
"12:54:56","44.6","19","35.7","30.29","13","5.8","20","0.00","0.00"
"12:59:57","44.5","18.1","34.4","30.30","65","7","15","0.00","0.00"
"13:04:58","44.2","17.8","34.4","30.30","10","6.4","15","0.00","0.00"
"13:09:56","44.2","18.3","35.1","30.30","41","4.8","14","0.00","0.00"
"13:14:56","44.7","19.4","36.2","30.30","56","4.4","11.5","0.00","0.00"
"13:19:58","45.2","19.2","35.1","30.30","121","4","11.5","0.00","0.00"
"13:24:57","45.8","19.5","34.7","30.30","12","4.7","12","0.00","0.00"
"13:29:59","45.8","18.6","33.4","30.30","322","5.3","16.1","0.00","0.00"
"13:34:57","45.6","20.1","36.1","30.30","358","5.4","15","0.00","0.00"
"13:39:56","45.9","20.9","36.8","30.30","9","3.5","11","0.00","0.00"
"13:44:59","46.6","22.3","37.9","30.30","357","5.2","15","0.00","0.00"
"13:49:56","47","21.9","36.9","30.30","54","4","15","0.00","0.00"
"13:54:58","46.9","19.9","34","30.30","342","4.8","13","0.00","0.00"
"13:59:56","46.9","20.3","34.5","30.30","8","4.1","15","0.00","0.00"
"14:04:57","47","18","31.2","30.30","1","5.8","15","0.00","0.00"
"14:09:59","47.1","19.9","33.7","30.30","8","4.4","13","0.00","0.00"
"14:14:58","47","17.6","30.7","30.30","43","5.7","17","0.00","0.00"
"14:19:56","46.2","17.8","31.9","30.30","61","4.3","10.4","0.00","0.00"
"14:24:57","46.2","18.2","32.4","30.30","9","6","14","0.00","0.00"
"14:29:56","46.6","17.9","31.4","30.31","17","4.2","18","0.00","0.00"
"14:34:58","46.6","18.6","32.4","30.31","9","5","18.4","0.00","0.00"
"14:39:57","46.5","18","31.8","30.31","19","7","24.2","0.00","0.00"
"14:44:56","46.4","18.2","32.1","30.31","346","6.8","17","0.00","0.00"
"14:49:58","46.7","17.3","30.7","30.30","358","7","17.3","0.00","0.00"
"14:54:56","46.9","17.6","30.7","30.30","352","7.1","18.4","0.00","0.00"
"14:59:58","47.2","18.6","31.8","30.30","61","4.4","11.5","0.00","0.00"
"15:04:58","47.4","18.9","31.8","30.30","59","3.8","11.5","0.00","0.00"
"15:09:56","47.5","18.7","31.6","30.30","2","5","12","0.00","0.00"
"15:14:59","47.7","19","31.7","30.30","23","4.5","14","0.00","0.00"
"15:19:57","47.8","19.9","32.9","30.30","29","3.2","12","0.00","0.00"
"15:24:59","48.2","20.1","32.6","30.30","31","4","11.5","0.00","0.00"
"15:29:57","48.7","18.9","30.4","30.31","39","5.6","15","0.00","0.00"
"15:34:59","48.6","17.8","29.2","30.31","11","5.5","17","0.00","0.00"
"15:39:56","48.5","19.2","31","30.31","56","3.5","12","0.00","0.00"
"15:44:58","48.7","18.7","30.1","30.31","64","4.8","14","0.00","0.00"
"15:49:56","48.5","17.5","28.9","30.31","43","5.7","14","0.00","0.00"
"15:54:59","48.5","16.9","28.1","30.31","319","4.9","14","0.00","0.00"
"15:59:57","48.5","17.1","28.4","30.31","17","5.1","17.3","0.00","0.00"
"16:04:57","48.4","16.5","27.7","30.31","48","4.4","13","0.00","0.00"
"16:09:58","48.6","17.5","28.8","30.31","9","4","12","0.00","0.00"
"16:14:58","49","19.1","30.3","30.31","47","4","12","0.00","0.00"
"16:19:56","49.3","19","29.9","30.31","53","3.8","10.4","0.00","0.00"
"16:24:58","49.6","19.9","30.6","30.31","58","3.2","7","0.00","0.00"
"16:29:57","49.6","18.6","29","30.31","50","4.4","16","0.00","0.00"
"16:34:59","49.4","18.7","29.4","30.31","15","3.8","16.1","0.00","0.00"
"16:39:59","49.6","19.3","29.9","30.31","45","2.4","6","0.00","0.00"
"16:44:57","50","20","30.4","30.32","358","2.7","6","0.00","0.00"
"16:49:59","50.2","20.1","30.3","30.32","54","2.5","7","0.00","0.00"
"16:54:56","50.3","18.2","27.8","30.32","340","3.9","13","0.00","0.00"
"16:59:57","50","18.6","28.7","30.32","31","3.3","12","0.00","0.00"
"17:04:57","50","18.6","28.6","30.32","70","2.8","6","0.00","0.00"
"17:09:59","50","18.3","28.3","30.32","120","2.3","6","0.00","0.00"
"17:14:58","50.1","18","27.7","30.33","3","3.3","7","0.00","0.00"
"17:19:56","50.4","18.4","27.9","30.33","354","4.1","12","0.00","0.00"
"17:24:58","50.4","18.4","27.9","30.33","44","2.6","11","0.00","0.00"
"17:29:56","50","17.9","27.7","30.33","1","2.5","9.2","0.00","0.00"
"17:34:58","49.8","18.1","28.1","30.33","11","3.8","10","0.00","0.00"
"17:39:57","49.8","18.1","28.2","30.33","18","4.5","13","0.00","0.00"
"17:44:59","49.7","17.9","27.9","30.34","41","3.2","12.7","0.00","0.00"
"17:49:57","49.7","18.1","28.2","30.34","36","2.4","11","0.00","0.00"
"17:54:59","49.5","17.9","28.2","30.34","36","2.7","11.5","0.00","0.00"
"17:59:56","49.1","17","27.5","30.34","18","3.5","11.5","0.00","0.00"
"18:04:57","48.8","16.6","27.4","30.34","14","2.3","6","0.00","0.00"
"18:09:59","48.8","17.3","28.3","30.34","38","2.4","9.2","0.00","0.00"
"18:14:58","48.6","16","26.9","30.35","110","3.3","10.4","0.00","0.00"
"18:19:56","48.4","16","27.1","30.35","42","3.8","11.5","0.00","0.00"
"18:24:58","48.1","15.6","27","30.35","11","2.8","11.5","0.00","0.00"
"18:29:56","47.7","15","26.7","30.36","52","2.5","10","0.00","0.00"
"18:34:57","47.3","14.8","26.8","30.36","6","2.4","9.2","0.00","0.00"
"18:39:56","46.9","14.8","27.2","30.36","6","2.2","6","0.00","0.00"
"18:44:58","46.5","14.9","27.8","30.36","347","1.6","5","0.00","0.00"
"18:49:56","46.2","15.3","28.6","30.36","7","1.7","4","0.00","0.00"
"18:54:58","45.8","15","28.6","30.36","315","1.7","6","0.00","0.00"
"18:59:57","45.5","14.7","28.6","30.37","344","2.2","9.2","0.00","0.00"
"19:04:58","45.3","15.4","29.7","30.37","17","1.2","3.5","0.00","0.00"
"19:09:57","45","15.8","30.6","30.37","7","0.8","2.3","0.00","0.00"
"19:14:58","44.6","15.9","31.2","30.38","22","1","4","0.00","0.00"
"19:19:56","44.3","15.8","31.4","30.38","331","0.8","2.3","0.00","0.00"
"19:24:59","44","15.6","31.5","30.38","331","0.3","1.2","0.00","0.00"
"19:29:59","43.7","15.6","31.9","30.38","324","0.3","3","0.00","0.00"
"19:34:59","43.4","15.9","32.6","30.38","331","0.4","4","0.00","0.00"
"19:39:56","43.1","15.9","33","30.38","344","0.5","3.5","0.00","0.00"
"19:44:59","42.8","15.6","33","30.39","326","0.9","4","0.00","0.00"
"19:49:57","42.5","15.1","32.5","30.39","325","1.5","3.5","0.00","0.00"
"19:54:57","42.4","15.3","33","30.39","327","0.7","3","0.00","0.00"
"19:59:59","42.2","15.1","33","30.39","329","0.8","2.3","0.00","0.00"
"20:04:56","42","15.4","33.8","30.39","328","0.5","2.3","0.00","0.00"
"20:09:58","41.7","15.6","34.3","30.39","338","0.3","2.3","0.00","0.00"
"20:14:58","41.4","15.4","34.5","30.40","340","0.5","3","0.00","0.00"
"20:19:57","41","15.3","34.8","30.40","327","0.9","3","0.00","0.00"
"20:24:56","40.9","15.3","35.1","30.40","327","0.2","1.2","0.00","0.00"
"20:29:59","40.6","16","36.5","30.40","327","0","1.2","0.00","0.00"
"20:34:57","40.3","15.4","36","30.40","325","0.1","1.2","0.00","0.00"
"20:39:58","40","16","37.5","30.40","325","0.2","2.3","0.00","0.00"
"20:44:57","39.6","15.4","37","30.41","325","0.1","2.3","0.00","0.00"
"20:49:56","39.4","15.2","36.9","30.41","325","0.2","2.3","0.00","0.00"
"20:54:58","39.2","15.4","37.5","30.41","325","0.5","2.3","0.00","0.00"
"20:59:57","39","15.5","38","30.42","325","0.1","1.2","0.00","0.00"
"21:04:58","38.8","16.1","39.4","30.42","325","0","1.2","0.00","0.00"
"21:09:58","38.6","15.7","39","30.42","325","0","0","0.00","0.00"
"21:14:58","38.3","15.5","39","30.42","22","0.2","2","0.00","0.00"
"21:19:57","38.2","15.7","39.5","30.42","8","0.8","3.5","0.00","0.00"
"21:24:59","38.1","16","40.2","30.42","5","0.5","2.3","0.00","0.00"
"21:29:57","37.9","17.3","42.9","30.43","5","0.4","2.3","0.00","0.00"
"21:34:57","37.7","16.5","41.8","30.43","5","0","1.2","0.00","0.00"
"21:39:57","37.4","16.5","42.2","30.43","5","0.4","2.3","0.00","0.00"
"21:44:56","37.2","16.4","42.4","30.44","5","1.3","3.5","0.00","0.00"
"21:49:59","37","16.2","42.3","30.44","5","0.2","2","0.00","0.00"
"21:54:58","36.9","17.3","44.7","30.44","5","0.2","2","0.00","0.00"
"21:59:57","36.7","17","44.4","30.45","5","0.1","1.2","0.00","0.00"
"22:04:59","36.5","16.5","43.8","30.45","5","0","0","0.00","0.00"
"22:09:57","36.2","16.7","44.5","30.45","5","0.1","1.2","0.00","0.00"
"22:14:57","36","16.7","45","30.46","5","0","0","0.00","0.00"
"22:19:59","35.7","17.8","47.8","30.46","5","0","1","0.00","0.00"
"22:24:58","35.3","19.6","52.5","30.46","5","0","0","0.00","0.00"
"22:29:57","34.9","19","51.9","30.46","5","0","1.2","0.00","0.00"
"22:34:59","34.6","18.9","52.1","30.46","5","0.7","2.3","0.00","0.00"
"22:39:59","34.4","19.3","53.7","30.46","5","0.4","2.3","0.00","0.00"
"22:44:58","34.1","20.1","56.4","30.47","5","0","0","0.00","0.00"
"22:49:56","33.8","20.5","57.9","30.47","5","0.2","2","0.00","0.00"
"22:54:59","33.4","20.3","58.2","30.47","5","0.9","2.3","0.00","0.00"
"22:59:57","32.9","19.9","58.4","30.47","5","0.5","2.3","0.00","0.00"
"23:04:58","32.5","21.6","63.8","30.47","5","0.7","2.3","0.00","0.00"
"23:09:57","32.1","21.3","64.1","30.47","5","0.2","2","0.00","0.00"
"23:14:56","31.9","21.2","64.1","30.48","5","1.5","3.5","0.00","0.00"
"23:19:56","31.6","22.1","67.6","30.48","360","1.5","2.3","0.00","0.00"
"23:24:58","31.2","21.3","66.2","30.48","360","0.9","2.3","0.00","0.00"
"23:29:56","31.1","21","65.8","30.48","358","1.6","3.5","0.00","0.00"
"23:34:58","30.8","21.4","67.7","30.48","353","0.9","3.5","0.00","0.00"
"23:39:58","30.6","21.5","68.6","30.48","355","0.4","2.3","0.00","0.00"
"23:44:56","30.3","22.6","72.7","30.49","355","0.6","1.2","0.00","0.00"
"23:49:58","30","22.5","73.5","30.49","355","0.3","2.3","0.00","0.00"
"23:54:56","29.6","22.3","74","30.49","355","0","1.2","0.00","0.00"
"23:59:57","29.3","22.3","74.6","30.49","355","0.3","1.2","0.00","0.00"
